Regional Weather Roundup
Issued by NWS Portland, ME

Current Version | Previous Version | Text Only | Print | Product List | Glossary Off
Versions: 1 2 3 4 5 6 7 8 9 10 11 12 13 14 15 16 17 18 19 20 21 22 23 24 25 26 27 28 29 30 31 32 33 34 35 36 37 38 39 40 41 42 43 44 45 46 47 48 49 50
542 ASUS41 KGYX 192205 RWRGYX WEATHER ROUNDUP FOR MAINE AND NEW HAMPSHIRE NATIONAL WEATHER SERVICE GRAY ME 600 PM EDT TUE SEP 19 2017 MEZ002-005-006-010-012-015-018-020-021-024-026-027-029-192300- MAINE CITY SKY/WX TMP DP RH WIND PRES REMARKS PORTLAND CLOUDY 65 64 97 E9 30.08F FOG SANFORD CLOUDY 64 64 100 E9 30.08S FOG BAR HARBOR CLOUDY 64 64 100 CALM 30.12S FOG WISCASSET CLOUDY 67 66 97 NE5 30.10S FOG ROCKLAND LGT RAIN 64 64 100 NE7 30.10S FOG FRYEBURG CLOUDY 68 65 90 NE5 30.10S LEWISTONAUBURN LGT RAIN 66 65 96 NE8 30.09F FOG AUGUSTA LGT RAIN 66 65 96 NE6 30.11S FOG WATERVILLE LGT RAIN 67 65 93 NE3 30.09S FOG BANGOR DRIZZLE 69 66 90 E3 30.12S FOG GREENVILLE N/A 64 61 90 SE5 30.12F MILLINOCKET MOCLDY 71 63 75 SE6 30.13S HOULTON CLEAR 69 64 84 S5 30.11F PRESQUE ISLE CLEAR 69 61 75 S5 30.12S FRENCHVILLE CLEAR 66 59 78 S8 30.10S CARIBOU CLEAR 70 59 68 S8 30.10F $$ NHZ002-005-008-009-011-012-014-192300- NEW HAMPSHIRE CITY SKY/WX TMP DP RH WIND PRES REMARKS PORTSMOUTH FOG 63 63 100 NE9 30.05S VSB 1/2 ROCHESTER CLOUDY 66 63 90 VRB6 30.06S FOG NASHUA CLOUDY 68 66 93 VRB7 30.05S MANCHESTER CLOUDY 68 65 90 NE9 30.03F CONCORD CLOUDY 70 64 81 NE9 30.06S LACONIA CLOUDY 69 64 84 E10 30.08S PLYMOUTH MOCLDY 72 62 70 CALM 30.07S BERLIN CLEAR 70 58 65 SE6 30.09F WHITEFIELD CLEAR 73 57 57 S6 30.08F JAFFREY CLOUDY 67 65 93 VRB3 30.07S KEENE MOCLDY 72 64 76 NE9 30.04S LEBANON CLEAR 74 63 68 E5 30.05S MT WASHINGTON FOG 52 52 100 SE20 N/A VSB 1/2 $$ VTZ005-007-008-192300- VERMONT CITY SKY/WX TMP DP RH WIND PRES REMARKS ST JOHNSBURY N/A 74 62 66 MISG 30.04F MONTPELIER MOCLDY 70 62 76 S3 30.12S BURLINGTON PTCLDY 77 60 55 SE9 30.03S $$ MAZ007-012-024-CTZ003-RIZ002-NYZ038-NYZ072-192300- SOUTHERN NEW ENGLAND AND NY CITY SKY/WX TMP DP RH WIND PRES REMARKS BOSTON CLOUDY 64 63 96 N15 30.00F FOG WORCESTER FOG 63 62 97 NE13G21 30.03S VSB 1/8 NANTUCKET RAIN 67 67 100 NE18G26 29.87F FOG PROVIDENCE LGT RAIN 66 65 96 NE15 29.97S HARTFORD CLOUDY 72 64 76 NE14 29.98S ALBANY MOCLDY 77 60 55 NE8 30.00S NEW YORK CITY CLOUDY 74 66 76 N18G24 29.88F $$ ANZ081-ANZ082-ANZ150-NHZ014-MEZ023>029-192300- COASTAL MARINE OBSERVATIONS STATION/POSITION TIME TEMP WIND PRES WAVE AIR SEA DIR/SP/G HT/PER (UTC) (F) (DEG/KT/KT) (MB) (FT/S) MOUNT DESERT ROC 2200 60 60/ 15/ 17 1019.0F MATINICUS ROCK 2100 57 60/ 19/ 20 1018.0F ISLE OF SHOALS 2100 60 30/ 17/ 19 1017.3S JEFFREYS LEDGE 2136 63 N/A 6/13 GEORGES BANK BUO 2050 73 65 1013.3 13/12 $$ .............KEY.............. WCI - WIND CHILL TC - TEMPERATURE IN CELSIUS VSB - VISIBILITY IN MILES HX - HEAT INDEX FAIR- INDICATES FEW OR NO CLOUDS BELOW 12,000 FT, WITH NO SIGNIFICANT WEATHER AND/OR OBSTRUCTIONS TO VISIBILITY.

USA.gov is the U.S. government's official web portal to all federal, state and local government web resources and services.